Volver al catálogo

QIANFAN-195

ActivoComunicacionesPO
NORAD 69413·PAYLOAD·🇨🇳 China

Lanzado Jun 5, 2026 desde Wenchang Space Launch Site

Loading…

Próximos Pases (próximas 24 horas)

TLE

ActualizadoSource: Space-Track

Época: Sep 14, 2026, 22:53 UTC

1 69413U 26125N   26257.95371320  .00000043  00000-0  47525-4 0  9995
2 69413  88.9900 270.8601 0001952  88.7445 271.3930 13.51011676 14085

Sigue QIANFAN-195 en tiempo real con AllMySat

Download on the App Store